Location: Unspecified
(0.0000°N, 0.0000°E)
Time: 10:42:35
(UTC+00:00)

N. Korean satellite - Pass Details

Date: 31 January 2021
Orbit: 451 x 503 km, 97.2° (Epoch: 27 February)

Event Time Altitude Azimuth Distance (km) Brightness Sun altitude
Rises 05:22:51 0° 357° (N) 2,441 9.9 -12.1°
Reaches altitude 10° 05:24:58 10° 348° (NNW) 1,574 8.9 -11.6°
Maximum altitude 05:28:04 35° 281° (W) 743 7.0 -10.8°
Drops below altitude 10° 05:31:14 10° 213° (SSW) 1,593 9.0 -10.1°
Sets 05:33:23 0° 204° (SSW) 2,476 10.1 -9.6°
